Location: Ch�teau-Arnoux
(44.0814°N, 6.0027°E)
Time: 10:03:59
(UTC+00:00)

Cosmos 1151 Rocket - Pass Details

Date: 15 November 2019
Orbit: 592 x 616 km, 82.5° (Epoch: 14 December)

Event Time Altitude Azimuth Distance (km) Brightness Sun altitude
Rises 05:35:02 0° 347° (NNW) 2,895 6.2 -10.2°
Reaches altitude 10° 05:37:18 10° 343° (NNW) 1,983 5.3 -9.8°
Maximum altitude 05:41:36 54° 266° (W) 745 3.1 -9.0°
Drops below altitude 10° 05:45:49 10° 189° (S) 1,956 5.7 -8.3°
Sets 05:48:03 0° 185° (S) 2,852 6.6 -7.9°
